Location: Jackson Park
(37.2862°N, 79.9123°W)
Time: 19:44:42
(UTC+00:00)

Vanguard 2 - Pass Details

Date: 18 May 2026
Orbit: 553 x 2894 km, 32.9° (Epoch: 6 June)

Event Time Altitude Azimuth Distance (km) Brightness Sun altitude
Rises 04:29:16 0° 215° (SW) 5,582 - -32.1°
Reaches altitude 10° 04:32:54 10° 208° (SSW) 4,860 - -32.3°
Maximum altitude 04:46:16 41° 145° (SE) 3,622 - -32.7°
Exits shadow 04:47:50 40° 134° (SE) 3,687 10.5 -32.8°
Drops below altitude 10° 05:01:50 10° 84° (E) 5,652 11.9 -33.1°
Sets 05:06:25 0° 78° (ENE) 6,548 12.4 -33.1°
